DW1521 Weather Reports


time (UTC)temp
C
wind
direction
speed
KPH
gust
KPH
rain 1hr
cm
rain 24hr
cm
rain mn
cm
humidity
%
barometer
mb
20260906052119 13 213 1.6 3.2 0.00 0.00 0.00 59 1022.6
20260906050619 13 219 1.6 3.2 0.00 0.00 0.00 58 1022.4
20260906050119 13 227 1.6 3.2 0.00 0.00 0.00 58 1022.5
20260906045119 13 316 0.0 0.0 0.00 0.00 0.00 57 1022.3
20260906044119 13 316 0.0 1.6 0.00 0.00 0.00 57 1022.4
20260906043119 13 313 0.0 1.6 0.00 0.00 0.00 57 1022.2
20260906042619 13 280 1.6 4.8 0.00 0.00 0.00 57 1022.0
20260906041119 13 311 1.6 3.2 0.00 0.00 0.00 58 1022.0
20260906040119 13 266 1.6 3.2 0.00 0.00 0.00 56 1021.8
20260906035619 13 303 0.0 1.6 0.00 0.00 0.00 57 1021.7
20260906034119 13 324 0.0 1.6 0.00 0.00 0.00 56 1021.4
20260906033120 13 307 1.6 3.2 0.00 0.00 0.00 55 1021.3
20260906032619 13 210 0.0 1.6 0.00 0.00 0.00 55 1021.2
20260906032119 13 210 1.6 1.6 0.00 0.00 0.00 56 1021.2
20260906030119 14 286 0.0 3.2 0.00 0.00 0.00 55 1020.7
20260906025619 14 325 1.6 3.2 0.00 0.00 0.00 55 1020.9
20260906024119 14 314 1.6 1.6 0.00 0.00 0.00 54 1020.7
20260906023619 14 280 0.0 1.6 0.00 0.00 0.00 54 1020.5
20260906023119 14 0 0.0 1.6 0.00 0.00 0.00 54 1020.5
20260906022619 14 2 1.6 3.2 0.00 0.00 0.00 54 1020.5
20260906021119 14 17 1.6 3.2 0.00 0.00 0.00 53 1020.5
20260906020619 14 307 0.0 0.0 0.00 0.00 0.00 53 1020.4
20260906020119 14 301 0.0 1.6 0.00 0.00 0.00 53 1020.4
20260906015619 14 218 0.0 1.6 0.00 0.00 0.00 52 1020.2
20260906012619 15 39 1.6 3.2 0.00 0.00 0.00 52 1020.1
20260906012119 15 27 1.6 1.6 0.00 0.00 0.00 52 1019.8
20260906011619 15 11 1.6 3.2 0.00 0.00 0.00 52 1019.7
20260906010619 15 1 0.0 1.6 0.00 0.00 0.00 52 1019.8
20260906005619 15 106 1.6 3.2 0.00 0.00 0.00 51 1019.7
20260906004119 15 103 1.6 3.2 0.00 0.00 0.00 52 1019.8
20260906003619 15 101 0.0 0.0 0.00 0.00 0.00 51 1019.6
20260906003119 15 101 0.0 0.0 0.00 0.00 0.00 51 1019.4
20260906002620 15 101 0.0 1.6 0.00 0.00 0.00 51 1019.5
20260906002119 15 101 0.0 1.6 0.00 0.00 0.00 51 1019.4
20260905235619 15 99 1.6 1.6 0.00 0.00 0.00 49 1019.1
20260905235119 16 95 0.0 1.6 0.00 0.00 0.00 49 1019.1
20260905234619 16 95 1.6 1.6 0.00 0.00 0.00 49 1019.0
20260905232119 16 50 0.0 3.2 0.00 0.00 0.00 47 1018.8
20260905231619 16 114 1.6 8.0 0.00 0.00 0.00 47 1019.0
20260905231119 16 63 1.6 4.8 0.00 0.00 0.00 47 1018.8
20260905230119 17 23 0.0 0.0 0.00 0.00 0.00 46 1018.9
20260905225619 17 10 0.0 0.0 0.00 0.00 0.00 46 1018.6
20260905225119 17 2 0.0 0.0 0.00 0.00 0.00 46 1018.8
20260905223120 17 259 0.0 0.0 0.00 0.00 0.00 46 1018.5
20260905222619 17 286 0.0 0.0 0.00 0.00 0.00 46 1018.4
20260905221619 17 306 0.0 0.0 0.00 0.00 0.00 46 1018.4
20260905221119 18 326 0.0 0.0 0.00 0.00 0.00 46 1018.2
20260905220619 18 326 0.0 0.0 0.00 0.00 0.00 46 1018.2
20260905215619 18 279 0.0 1.6 0.00 0.00 0.00 45 1017.9
20260905215119 18 282 0.0 1.6 0.00 0.00 0.00 44 1017.9
20260905214619 18 275 1.6 3.2 0.00 0.00 0.00 44 1017.9
20260905213619 18 304 0.0 1.6 0.00 0.00 0.00 44 1017.9
20260905212619 18 306 1.6 3.2 0.00 0.00 0.00 43 1017.9
20260905212119 18 319 1.6 1.6 0.00 0.00 0.00 43 1017.7
20260905211619 18 276 1.6 3.2 0.00 0.00 0.00 43 1017.8
20260905211119 19 314 1.6 3.2 0.00 0.00 0.00 42 1017.5
20260905210619 19 282 1.6 3.2 0.00 0.00 0.00 42 1017.6
20260905210119 19 292 0.0 1.6 0.00 0.00 0.00 42 1017.5
20260905205619 19 314 1.6 1.6 0.00 0.00 0.00 41 1017.3
20260905203619 20 221 1.6 3.2 0.00 0.00 0.00 40 1017.4
20260905202119 20 23 1.6 4.8 0.00 0.00 0.00 40 1017.1
20260905201119 20 257 1.6 4.8 0.00 0.00 0.00 39 1017.2
20260905200619 21 249 1.6 3.2 0.00 0.00 0.00 39 1017.0
20260905200120 21 248 1.6 3.2 0.00 0.00 0.00 39 1016.8
20260905195619 21 253 1.6 3.2 0.00 0.00 0.00 38 1016.9
20260905194619 21 29 1.6 3.2 0.00 0.00 0.00 37 1016.6
20260905194120 21 312 0.0 4.8 0.00 0.00 0.00 37 1016.4
20260905191119 22 300 3.2 4.8 0.00 0.00 0.00 36 1016.3
20260905184119 23 249 0.0 3.2 0.00 0.00 0.00 33 1015.7
20260905183619 23 243 1.6 4.8 0.00 0.00 0.00 33 1015.6
20260905183119 23 258 0.0 3.2 0.00 0.00 0.00 33 1015.4
20260905182619 24 261 1.6 3.2 0.00 0.00 0.00 33 1015.4
20260905182119 24 296 1.6 1.6 0.00 0.00 0.00 32 1015.4
20260905181619 24 332 1.6 3.2 0.00 0.00 0.00 32 1015.4
20260905180619 25 33 0.0 1.6 0.00 0.00 0.00 31 1014.9
20260905175119 25 34 1.6 1.6 0.00 0.00 0.00 30 1014.8
20260905172619 27 328 0.0 1.6 0.00 0.00 0.00 29 1013.9
20260905171619 27 323 0.0 1.6 0.00 0.00 0.00 28 1013.8
20260905171119 27 312 1.6 3.2 0.00 0.00 0.00 28 1013.7
20260905170619 28 301 0.0 1.6 0.00 0.00 0.00 28 1013.5
20260905165119 28 311 1.6 3.2 0.00 0.00 0.00 26 1013.3
20260905163119 30 291 1.6 3.2 0.00 0.00 0.00 25 1012.7
20260905162619 30 302 1.6 3.2 0.00 0.00 0.00 25 1012.6
20260905161119 30 289 3.2 4.8 0.00 0.00 0.00 24 1012.6
20260905155619 31 305 3.2 9.7 0.00 0.00 0.00 23 1012.3
20260905154619 31 328 4.8 9.7 0.00 0.00 0.00 23 1012.2
20260905154119 31 321 4.8 11.3 0.00 0.00 0.00 23 1012.4
20260905153619 31 326 4.8 11.3 0.00 0.00 0.00 23 1012.3
20260905153119 31 312 3.2 9.7 0.00 0.00 0.00 24 1012.2
20260905150119 32 323 6.4 14.5 0.00 0.00 0.00 24 1012.2
20260905145619 32 324 4.8 14.5 0.00 0.00 0.00 23 1012.3
20260905145119 32 297 6.4 19.3 0.00 0.00 0.00 23 1012.3
20260905143119 32 337 6.4 12.9 0.00 0.00 0.00 23 1012.2
20260905142118 32 328 9.7 14.5 0.00 0.00 0.00 23 1012.2
20260905140619 33 323 4.8 14.5 0.00 0.00 0.00 24 1012.1
20260905140119 33 323 6.4 12.9 0.00 0.00 0.00 23 1012.1
20260905135619 33 303 9.7 25.7 0.00 0.00 0.00 24 1012.2
20260905135119 33 319 3.2 11.3 0.00 0.00 0.00 24 1012.0
20260905133619 33 322 3.2 14.5 0.00 0.00 0.00 25 1012.3
20260905133119 33 297 6.4 12.9 0.00 0.00 0.00 25 1012.2
20260905131119 33 308 9.7 14.5 0.00 0.00 0.00 26 1012.4
20260905130619 33 270 4.8 11.3 0.00 0.00 0.00 26 1012.2
20260905130119 33 337 6.4 11.3 0.00 0.00 0.00 26 1012.4
20260905125619 33 299 4.8 11.3 0.00 0.00 0.00 27 1012.6
20260905125120 33 65 3.2 9.7 0.00 0.00 0.00 27 1012.6
20260905123119 32 325 3.2 9.7 0.00 0.00 0.00 25 1012.9
20260905115119 32 306 3.2 11.3 0.00 0.00 0.00 29 1013.3
20260905114619 32 329 4.8 20.9 0.00 0.00 0.00 29 1013.4
20260905114119 32 310 9.7 20.9 0.00 0.00 0.00 29 1013.5
20260905113119 32 327 3.2 9.7 0.00 0.00 0.00 31 1013.6
20260905112619 32 234 4.8 9.7 0.00 0.00 0.00 30 1013.4
20260905111119 31 329 3.2 9.7 0.00 0.00 0.00 30 1013.9
20260905110119 31 330 4.8 11.3 0.00 0.00 0.00 31 1014.1
20260905105119 31 240 3.2 9.7 0.00 0.00 0.00 31 1014.2
20260905104119 30 337 6.4 12.9 0.00 0.00 0.00 32 1014.4
20260905103619 30 327 6.4 12.9 0.00 0.00 0.00 32 1014.4
20260905102618 30 265 1.6 11.3 0.00 0.00 0.00 33 1014.7
20260905102119 30 317 6.4 12.9 0.00 0.00 0.00 33 1014.7
20260905100119 28 2 8.0 9.7 0.00 0.00 0.00 36 1015.0
20260905095619 28 347 6.4 12.9 0.00 0.00 0.00 37 1015.4
20260905095118 28 18 6.4 12.9 0.00 0.00 0.00 37 1015.5
20260905094119 28 14 3.2 8.0 0.00 0.00 0.00 39 1015.5
20260905085619 25 342 1.6 11.3 0.00 0.00 0.00 45 1016.8
20260905085119 25 268 3.2 11.3 0.00 0.00 0.00 46 1016.9
20260905084119 24 314 4.8 16.1 0.00 0.00 0.00 47 1017.1
20260905083619 24 326 4.8 12.9 0.00 0.00 0.00 49 1017.3
20260905082119 23 274 1.6 8.0 0.00 0.00 0.00 53 1017.5
20260905081619 22 346 3.2 9.7 0.00 0.00 0.00 53 1017.7
20260905081119 22 321 4.8 11.3 0.00 0.00 0.00 55 1018.1
20260905080618 21 310 1.6 3.2 0.00 0.00 0.00 55 1018.2
20260905075619 21 290 1.6 4.8 0.00 0.00 0.00 56 1018.6
20260905075119 21 313 1.6 3.2 0.00 0.00 0.00 57 1018.5
20260905074619 20 20 1.6 3.2 0.00 0.00 0.00 57 1018.7
20260905074119 20 257 1.6 3.2 0.00 0.00 0.00 58 1018.8
20260905072119 18 274 1.6 3.2 0.00 0.00 0.00 60 1019.2
20260905071118 17 280 1.6 4.8 0.00 0.00 0.00 61 1019.3
20260905070619 17 266 3.2 4.8 0.00 0.00 0.00 61 1019.4
20260905070119 17 294 1.6 3.2 0.00 0.00 0.00 62 1019.7
20260905063619 15 270 3.2 4.8 0.00 0.00 0.00 64 1020.2
20260905062619 15 248 1.6 3.2 0.00 0.00 0.00 65 1020.5
20260905062119 14 263 3.2 4.8 0.00 0.00 0.00 66 1020.6
20260905061619 14 256 1.6 4.8 0.00 0.00 0.00 66 1020.5
20260905060118 13 238 0.0 1.6 0.00 0.00 0.00 65 1021.0
20260905055619 12 231 0.0 3.2 0.00 0.00 0.00 65 1021.1
20260905053618 12 182 1.6 4.8 0.00 0.00 0.00 65 1021.1
20260905053119 12 173 3.2 4.8 0.00 0.00 0.00 65 1021.3
20260905052619 12 173 1.6 4.8 0.00 0.00 0.00 65 1021.2